Weather History for KPIH - January, 2013

Change the Weather History Date:

Monday, January 21, 2013

  Actual Average Record
Temperature  
Mean Temperature 8 °F 24 °F  
Max Temperature 21 °F 33 °F 50 °F (1943)
Min Temperature -6 °F 16 °F -25 °F (1962)
Degree Days  
Heating Degree Days 57 40  
Month to date heating degree days 1177 860  
Since 1 July heating degree days 3734 3845  
Cooling Degree Days 0 0  
Month to date cooling degree days 0 0  
Year to date cooling degree days 0 0  
Moisture  
Dew Point -2 °F    
Average Humidity 74    
Maximum Humidity 91    
Minimum Humidity 57    
Precipitation  
Precipitation 0.00 in 0.03 in 0.52 in (2012)
Month to date precipitation 0.24 0.71  
Year to date precipitation 0.24 0.71  
Snow  
Snow 0.00 in - - ()
Month to date snowfall 4.3  
Since 1 July snowfall 23.9  
Snow Depth 4.00 in    
Sea Level Pressure  
Sea Level Pressure 30.60 in    
Wind  
Wind Speed 3 mph (NNE)    
Max Wind Speed 8 mph    
Max Gust Speed 10 mph    
Visibility 5 miles    
Events Fog    
T = Trace of Precipitation, MM = Missing Value Source: NWS Daily Summary

Daily Weather History Graph

Daily Weather History Graph

Search for Another Location

Airport or City:

Trip Planner

Search our weather history database for the weather conditions in past years. The results will help you decide how hot, cold, wet, or windy it might be!

Date:

Astronomy

Jan. 21, 2013 Rise Set
Actual Time 7:54 AM MST 5:29 PM MST
Civil Twilight 7:23 AM MST 6:00 PM MST
Nautical Twilight 6:49 AM MST 6:34 PM MST
Astronomical Twilight 6:15 AM MST 7:08 PM MST
Moon 1:11 PM MST (1/21) 3:26 AM MST (1/21)
Length of Visible Light 10h 36m
Length of Day
9h 34m
Waxing Gibbous, 75% of the Moon is Illuminated
Jan 21
Waxing Gibbous
Jan 26
Full
Feb 3
Last Quarter
Feb 10
New
Feb 17
First Quarter

Hourly Weather History & Observations

Time (MST) Temp. Windchill Dew Point Humidity Pressure Visibility Wind Dir Wind Speed Gust Speed Precip Events Conditions
12:17 AM -0.4 °F - -5.8 °F 78% 30.46 in 1.8 mi Calm Calm - N/A   Partly Cloudy
12:23 AM -2.2 °F - -5.8 °F 85% 30.46 in 0.8 mi Calm Calm - N/A   Mist
12:36 AM -2.2 °F - -5.8 °F 85% 30.45 in 0.2 mi Calm Calm - N/A Fog Light Freezing Fog
12:53 AM -0.9 °F - -2.9 °F 91% 30.69 in 0.2 mi Calm Calm - N/A Fog Light Freezing Fog
1:53 AM -4.0 °F - -7.1 °F 87% 30.68 in 0.2 mi Calm Calm - N/A Fog Light Freezing Fog
2:53 AM -5.1 °F - -7.1 °F 91% 30.69 in 0.2 mi Calm Calm - N/A Fog Light Freezing Fog
3:22 AM -4.0 °F -16.3 °F -7.6 °F 85% 30.46 in 0.5 mi NE 5.8 mph - N/A Fog Light Freezing Fog
3:31 AM -5.8 °F - -7.6 °F 92% 30.45 in 1.2 mi Calm Calm - N/A   Scattered Clouds
3:47 AM -4.0 °F - -7.6 °F 85% 30.45 in 3.0 mi Calm Calm - N/A   Clear
3:53 AM -4.0 °F - -8.0 °F 83% 30.68 in 4.0 mi Calm Calm - N/A   Clear
4:24 AM -5.8 °F - -9.4 °F 84% 30.44 in 1.8 mi Calm Calm - N/A   Clear
4:51 AM -5.8 °F -14.5 °F -9.4 °F 84% 30.43 in 2.5 mi North 3.5 mph - N/A   Clear
4:53 AM -5.1 °F -13.6 °F -8.0 °F 87% 30.69 in 2.5 mi North 3.5 mph - N/A   Clear
5:12 AM -5.8 °F -18.4 °F -9.4 °F 84% 30.44 in 4.0 mi NE 5.8 mph - N/A   Clear
5:43 AM -2.2 °F -14.2 °F -7.6 °F 78% 30.44 in 5.0 mi NNE 5.8 mph - N/A   Partly Cloudy
5:53 AM -4.0 °F -17.8 °F -9.0 °F 79% 30.71 in 6.0 mi NNE 6.9 mph - N/A   Haze
6:53 AM -2.0 °F - -6.0 °F 83% 30.72 in 6.0 mi Calm Calm - N/A   Scattered Clouds
7:53 AM -4.0 °F -17.8 °F -8.0 °F 83% 30.73 in 6.0 mi NNE 6.9 mph - N/A   Partly Cloudy
8:53 AM -0.9 °F -8.9 °F -6.0 °F 79% 30.74 in 6.0 mi NNE 3.5 mph - N/A   Haze
9:53 AM 3.0 °F - -0.0 °F 87% 30.74 in 6.0 mi Calm Calm - N/A   Partly Cloudy
10:53 AM 10.9 °F - 6.1 °F 81% 30.71 in 6.0 mi Calm Calm - N/A   Haze
11:53 AM 12.0 °F 1.5 °F 3.9 °F 70% 30.69 in 8.0 mi NNE 6.9 mph - N/A   Clear
12:53 PM 16.0 °F 10.4 °F 6.1 °F 65% 30.65 in 9.0 mi North 3.5 mph - N/A   Clear
1:53 PM 21.0 °F 16.2 °F 8.1 °F 57% 30.62 in 7.0 mi ENE 3.5 mph - N/A   Clear
2:53 PM 19.9 °F 13.4 °F 9.0 °F 62% 30.61 in 10.0 mi ENE 4.6 mph - N/A   Clear
3:53 PM 21.0 °F 12.4 °F 8.1 °F 57% 30.59 in 10.0 mi NNE 6.9 mph - N/A   Clear
4:53 PM 18.0 °F 9.8 °F 7.0 °F 62% 30.59 in 10.0 mi NE 5.8 mph - N/A   Clear
5:53 PM 8.1 °F - 3.0 °F 80% 30.61 in 10.0 mi Calm Calm - N/A   Clear
6:53 PM 5.0 °F -4.1 °F 1.0 °F 84% 30.62 in 10.0 mi NE 4.6 mph - N/A   Clear
7:53 PM 7.0 °F 0.1 °F 1.9 °F 80% 30.63 in 9.0 mi NNE 3.5 mph - N/A   Clear
8:53 PM 3.0 °F - -0.9 °F 84% 30.63 in 8.0 mi Calm Calm - N/A   Clear
9:53 PM 5.0 °F - -0.0 °F 80% 30.62 in 6.0 mi Calm Calm - N/A   Haze
10:53 PM -0.0 °F - -2.9 °F 88% 30.61 in 5.0 mi Calm Calm - N/A   Partly Cloudy
11:53 PM -2.0 °F -12.2 °F -4.0 °F 91% 30.62 in 5.0 mi North 4.6 mph - N/A   Clear